STARLINK-1357, 45565

Orbit data source: Space-Track

STARLINK-1357, 45565 is a payload satellite owned by SpaceX/Seattle (US) in LEO that was launched on Wed, 22 Apr 2020 UTC via an FALCON 9 launch vehicle from the Air Force Eastern Test Range (AFETR). Payload-class satellites include a variety of spacecraft equipped with specific instruments for various scientific and technological missions. These include communications satellites like Starlink; space stations such as the ISS; scientific satellites like the Hubble; Earth observation satellites from companies like Planet Labs, Umbra, and HawkEye 360; GPS; miniature CubeSats for education and research; and military/defense satellites.

Not visible in the next 10 days
Identifier
45565, 2020-025AL
Orbit
LEO
Country
Flag of USUS
Related business
Manufacturer
SpaceX/Seattle
Mission
Partially operational Commercial Communications
Bus & Motor
STARLINK, Unknown motor
Mass
260 kg wet, ~248 kg dry
Launch date (UTC)
2020-04-22 (6 years ago)
Launch vehicle
FALCON 9
Launch site
Air Force Eastern Test Range (AFETR)
Object type
Payload
Rocket body
Debris
Shape & HBR
Box + 1 Pan, 10.1 m
Radar Cross Section
13.562 m², Large (>1 m²)

Expand to show TLE details & history
Last TLE update: 14 hours ago

TLE from 14 hours ago
0 STARLINK-1357
1 45565U 20025AL  26150.87055992  .00065381  00000-0  56896-3 0  9993
2 45565  53.0456 355.7760 0006408 100.1230 260.0509 15.68426654338911
Epoch: 2026-05-30T20:53Z
TLE epoch observation values (Epoch: 2026-05-30T20:53:36.377Z)
Latitude
Longitude
153.99405°
Altitude
365.053 km
Speed
7.691 km/s
True Right ascension
23h 43m 06s
True Declination
0° 00' 00"
Sunlit
Object was in daylight at epoch
Visualization orbit readout
Latitude
Unknown
Longitude
Unknown
Altitude
Unknown
Speed
Unknown
Apparent Right ascension
Unknown
Apparent Declination
Unknown
Sunlit
N/A
Visualization observer readout
Local Sidereal Time
20:41:35
Azimuth
Unknown
Elevation
Unknown
Doppler factor
Unknown
Orbital elements
Apogee altitude
368.001 km
Perigee altitude
359.361 km
Semi-major axis
6,741.818 km
Eccentricity
0.00064
Inclination
53.0456°
RAAN
355.776°
Arg. of periapsis
100.123°
True anomaly
259.97858°
Mean anomaly
260.0509°
Eccentric anomaly
260.01474°
Mean motion
3.92083 °/min
Orbital period
91.82 mins
BSTAR
0.00056896
Loading maneuver chart data...
Computing Atmospheric mass density...
Loading historical data...
Loading historical data...
Loading historical data...
Loading historical data...
Loading historical data...
Loading historical data...
Loading historical data...

Documentation

Showing up to 5 results
|